Time,TemperatureF,DewpointF,PressureIn,WindDirection,WindDirectionDegrees,WindSpeedMPH,WindSpeedGustMPH,Humidity,HourlyPrecipIn,Conditions,Clouds,dailyrainin,SolarRadiationWatts/m^2,SoftwareType,DateUTC
2013-02-10 00:01:00,35.0,22.0,30.16,South,182,2.0,5.0,58,0.00,,,0.00,0.000000,,2013-02-10 05:01:00,
2013-02-10 00:10:00,34.0,23.0,30.17,WNW,295,1.0,3.0,63,0.00,,,0.00,0.000000,,2013-02-10 05:10:00,
2013-02-10 00:32:00,34.0,23.0,30.17,WNW,295,1.0,3.0,63,0.00,,,0.00,0.000000,,2013-02-10 05:32:00,
2013-02-10 00:42:00,34.0,23.0,30.17,WNW,295,1.0,3.0,63,0.00,,,0.00,0.000000,,2013-02-10 05:42:00,
2013-02-10 00:52:00,34.0,23.0,30.17,WNW,295,1.0,3.0,63,0.00,,,0.00,0.000000,,2013-02-10 05:52:00,
2013-02-10 01:02:00,34.0,23.0,30.17,WNW,295,1.0,3.0,63,0.00,,,0.00,0.000000,,2013-02-10 06:02:00,
2013-02-10 01:10:00,34.0,22.0,30.17,SSW,198,2.0,6.0,62,0.00,,,-99.99,0.000000,,2013-02-10 06:10:00,
2013-02-10 01:32:00,34.0,22.0,30.17,SSW,198,2.0,6.0,62,0.00,,,-99.99,0.000000,,2013-02-10 06:32:00,
2013-02-10 01:42:00,34.0,22.0,30.17,SSW,198,2.0,6.0,62,0.00,,,-99.99,0.000000,,2013-02-10 06:42:00,
2013-02-10 01:52:00,34.0,22.0,30.17,SSW,198,2.0,6.0,62,0.00,,,-99.99,0.000000,,2013-02-10 06:52:00,
2013-02-10 02:01:00,34.0,22.0,30.17,SSW,198,2.0,6.0,62,0.00,,,-99.99,0.000000,,2013-02-10 07:01:00,
2013-02-10 02:10:00,35.0,23.0,30.17,WSW,257,2.0,6.0,60,0.00,,,0.00,0.000000,,2013-02-10 07:10:00,
2013-02-10 02:42:00,35.0,23.0,30.17,WSW,257,2.0,6.0,60,0.00,,,0.00,0.000000,,2013-02-10 07:42:00,
2013-02-10 02:52:00,35.0,23.0,30.17,WSW,257,2.0,6.0,60,0.00,,,0.00,0.000000,,2013-02-10 07:52:00,
2013-02-10 03:01:00,35.0,23.0,30.17,WSW,257,2.0,6.0,60,0.00,,,0.00,0.000000,,2013-02-10 08:01:00,
2013-02-10 03:10:00,38.0,22.0,30.17,SSW,194,3.0,7.0,51,0.00,,,0.00,0.000000,,2013-02-10 08:10:00,
2013-02-10 03:43:00,38.0,22.0,30.17,SSW,194,3.0,7.0,51,0.00,,,0.00,0.000000,,2013-02-10 08:43:00,
2013-02-10 03:52:00,38.0,22.0,30.17,SSW,194,3.0,7.0,51,0.00,,,0.00,0.000000,,2013-02-10 08:52:00,
2013-02-10 04:02:00,38.0,22.0,30.17,SSW,194,3.0,7.0,51,0.00,,,0.00,0.000000,,2013-02-10 09:02:00,
2013-02-10 04:10:00,37.0,24.0,30.16,South,175,2.0,8.0,58,0.00,,,0.00,0.000000,,2013-02-10 09:10:00,
2013-02-10 04:32:00,37.0,24.0,30.16,South,175,2.0,8.0,58,0.00,,,0.00,0.000000,,2013-02-10 09:32:00,
2013-02-10 04:42:00,37.0,24.0,30.16,South,175,2.0,8.0,58,0.00,,,0.00,0.000000,,2013-02-10 09:42:00,
2013-02-10 04:52:00,37.0,24.0,30.16,South,175,2.0,8.0,58,0.00,,,0.00,0.000000,,2013-02-10 09:52:00,
2013-02-10 05:01:00,37.0,24.0,30.16,South,175,2.0,8.0,58,0.00,,,0.00,0.000000,,2013-02-10 10:01:00,
2013-02-10 05:10:00,35.0,21.0,30.17,SW,216,3.0,7.0,57,0.00,,,0.00,0.000000,,2013-02-10 10:10:00,
2013-02-10 05:42:00,35.0,21.0,30.17,SW,216,3.0,7.0,57,0.00,,,0.00,0.000000,,2013-02-10 10:42:00,
2013-02-10 05:52:00,35.0,21.0,30.17,SW,216,3.0,7.0,57,0.00,,,0.00,0.000000,,2013-02-10 10:52:00,
2013-02-10 06:01:00,35.0,21.0,30.17,SW,216,3.0,7.0,57,0.00,,,0.00,0.000000,,2013-02-10 11:01:00,
2013-02-10 06:10:00,37.0,21.0,30.19,NE,35,3.0,8.0,51,0.00,,,0.00,0.000000,,2013-02-10 11:10:00,
2013-02-10 06:32:00,37.0,21.0,30.19,NE,35,3.0,8.0,51,0.00,,,0.00,0.000000,,2013-02-10 11:32:00,
2013-02-10 06:42:00,37.0,21.0,30.19,NE,35,3.0,8.0,51,0.00,,,0.00,0.000000,,2013-02-10 11:42:00,
2013-02-10 06:52:00,37.0,21.0,30.19,NE,35,3.0,8.0,51,0.00,,,0.00,0.000000,,2013-02-10 11:52:00,
2013-02-10 07:02:00,37.0,21.0,30.19,NE,35,3.0,8.0,51,0.00,,,0.00,0.000000,,2013-02-10 12:02:00,
2013-02-10 10:10:00,42.0,22.0,30.23,NNW,334,2.0,6.0,45,-99.99,,,0.00,98.000000,,2013-02-10 15:10:00,
2013-02-10 10:32:00,42.0,22.0,30.23,NNW,334,2.0,6.0,45,-99.99,,,0.00,98.000000,,2013-02-10 15:32:00,
2013-02-10 10:42:00,42.0,22.0,30.23,NNW,334,2.0,6.0,45,-99.99,,,0.00,98.000000,,2013-02-10 15:42:00,
2013-02-10 10:52:00,42.0,22.0,30.23,NNW,334,2.0,6.0,45,-99.99,,,0.00,98.000000,,2013-02-10 15:52:00,
2013-02-10 11:02:00,42.0,22.0,30.23,NNW,334,2.0,6.0,45,-99.99,,,0.00,98.000000,,2013-02-10 16:02:00,
2013-02-10 11:10:00,44.0,17.0,30.22,North,354,4.0,16.0,34,0.00,,,0.00,350.000000,,2013-02-10 16:10:00,
2013-02-10 11:32:00,44.0,17.0,30.22,North,354,4.0,16.0,34,0.00,,,0.00,350.000000,,2013-02-10 16:32:00,
2013-02-10 12:02:00,44.0,17.0,30.22,North,354,4.0,16.0,34,0.00,,,0.00,350.000000,,2013-02-10 17:02:00,
2013-02-10 12:10:00,47.0,20.0,30.19,South,174,6.0,16.0,34,0.00,,,0.00,402.000000,,2013-02-10 17:10:00,
2013-02-10 12:32:00,47.0,20.0,30.19,South,174,6.0,16.0,34,0.00,,,0.00,402.000000,,2013-02-10 17:32:00,
2013-02-10 12:42:00,47.0,20.0,30.19,South,174,6.0,16.0,34,0.00,,,0.00,402.000000,,2013-02-10 17:42:00,
2013-02-10 12:53:00,47.0,20.0,30.19,South,174,6.0,16.0,34,0.00,,,0.00,402.000000,,2013-02-10 17:53:00,
2013-02-10 13:02:00,47.0,20.0,30.19,South,174,6.0,16.0,34,0.00,,,0.00,402.000000,,2013-02-10 18:02:00,
2013-02-10 13:10:00,47.0,23.0,30.14,SW,215,5.0,20.0,38,0.00,,,0.00,339.000000,,2013-02-10 18:10:00,
2013-02-10 13:42:00,47.0,23.0,30.14,SW,215,5.0,20.0,38,0.00,,,0.00,339.000000,,2013-02-10 18:42:00,
2013-02-10 13:52:00,47.0,23.0,30.14,SW,215,5.0,20.0,38,0.00,,,0.00,339.000000,,2013-02-10 18:52:00,
2013-02-10 14:02:00,47.0,23.0,30.14,SW,215,5.0,20.0,38,0.00,,,0.00,339.000000,,2013-02-10 19:02:00,
2013-02-10 14:10:00,51.0,25.0,30.12,SSW,207,6.0,17.0,36,0.00,,,0.00,550.000000,,2013-02-10 19:10:00,
2013-02-10 14:32:00,51.0,25.0,30.12,SSW,207,6.0,17.0,36,0.00,,,0.00,550.000000,,2013-02-10 19:32:00,
2013-02-10 14:43:00,51.0,25.0,30.12,SSW,207,6.0,17.0,36,0.00,,,0.00,550.000000,,2013-02-10 19:43:00,
2013-02-10 14:52:00,51.0,25.0,30.12,SSW,207,6.0,17.0,36,0.00,,,0.00,550.000000,,2013-02-10 19:52:00,
2013-02-10 15:02:00,51.0,25.0,30.12,SSW,207,6.0,17.0,36,0.00,,,0.00,550.000000,,2013-02-10 20:02:00,
2013-02-10 15:10:00,45.0,23.0,30.09,NW,321,4.0,17.0,42,0.00,,,0.00,289.000000,,2013-02-10 20:10:00,
2013-02-10 15:42:00,45.0,23.0,30.09,NW,321,4.0,17.0,42,0.00,,,0.00,289.000000,,2013-02-10 20:42:00,
2013-02-10 15:52:00,45.0,23.0,30.09,NW,321,4.0,17.0,42,0.00,,,0.00,289.000000,,2013-02-10 20:52:00,
2013-02-10 16:02:00,45.0,23.0,30.09,NW,321,4.0,17.0,42,0.00,,,0.00,289.000000,,2013-02-10 21:02:00,
2013-02-10 16:10:00,47.0,26.0,30.09,WNW,288,4.0,14.0,43,0.00,,,0.00,152.000000,,2013-02-10 21:10:00,
2013-02-10 16:32:00,47.0,26.0,30.09,WNW,288,4.0,14.0,43,0.00,,,0.00,152.000000,,2013-02-10 21:32:00,
2013-02-10 16:42:00,47.0,26.0,30.09,WNW,288,4.0,14.0,43,0.00,,,0.00,152.000000,,2013-02-10 21:42:00,
2013-02-10 16:52:00,47.0,26.0,30.09,WNW,288,4.0,14.0,43,0.00,,,0.00,152.000000,,2013-02-10 21:52:00,
2013-02-10 17:02:00,47.0,26.0,30.09,WNW,288,4.0,14.0,43,0.00,,,0.00,152.000000,,2013-02-10 22:02:00,
2013-02-10 17:10:00,46.0,29.0,30.06,NW,313,3.0,14.0,51,0.00,,,0.00,41.000000,,2013-02-10 22:10:00,
2013-02-10 17:42:00,46.0,29.0,30.06,NW,313,3.0,14.0,51,0.00,,,0.00,41.000000,,2013-02-10 22:42:00,
2013-02-10 17:53:00,46.0,29.0,30.06,NW,313,3.0,14.0,51,0.00,,,0.00,41.000000,,2013-02-10 22:53:00,
2013-02-10 18:02:00,46.0,29.0,30.06,NW,313,3.0,14.0,51,0.00,,,0.00,41.000000,,2013-02-10 23:02:00,
2013-02-10 18:10:00,42.0,37.0,30.07,South,183,2.0,9.0,83,0.01,,,0.01,5.000000,,2013-02-10 23:10:00,
2013-02-10 18:32:00,42.0,37.0,30.07,South,183,2.0,9.0,83,0.01,,,0.01,5.000000,,2013-02-10 23:32:00,
2013-02-10 18:42:00,42.0,37.0,30.07,South,183,2.0,9.0,83,0.01,,,0.01,5.000000,,2013-02-10 23:42:00,
2013-02-10 18:52:00,42.0,37.0,30.07,South,183,2.0,9.0,83,0.01,,,0.01,5.000000,,2013-02-10 23:52:00,
2013-02-10 19:02:00,42.0,37.0,30.07,South,183,2.0,9.0,83,0.01,,,0.01,5.000000,,2013-02-11 00:02:00,
2013-02-10 19:10:00,41.0,40.0,30.08,ESE,123,2.0,4.0,96,0.18,,,0.19,0.000000,,2013-02-11 00:10:00,
2013-02-10 19:42:00,41.0,40.0,30.08,ESE,123,2.0,4.0,96,0.18,,,0.19,0.000000,,2013-02-11 00:42:00,
2013-02-10 19:52:00,41.0,40.0,30.08,ESE,123,2.0,4.0,96,0.18,,,0.19,0.000000,,2013-02-11 00:52:00,
2013-02-10 20:01:00,41.0,40.0,30.08,ESE,123,2.0,4.0,96,0.18,,,0.19,0.000000,,2013-02-11 01:01:00,
2013-02-10 21:10:00,39.0,38.0,30.13,SE,128,1.0,4.0,98,-99.99,,,0.41,0.000000,,2013-02-11 02:10:00,
2013-02-10 21:42:00,39.0,38.0,30.13,SE,128,1.0,4.0,98,-99.99,,,0.41,0.000000,,2013-02-11 02:42:00,
2013-02-10 21:52:00,39.0,38.0,30.13,SE,128,1.0,4.0,98,-99.99,,,0.41,0.000000,,2013-02-11 02:52:00,
2013-02-10 22:02:00,39.0,38.0,30.13,SE,128,1.0,4.0,98,-99.99,,,0.41,0.000000,,2013-02-11 03:02:00,
2013-02-10 22:10:00,41.0,40.0,30.08,West,265,2.0,5.0,98,0.03,,,0.44,0.000000,,2013-02-11 03:10:00,
2013-02-10 22:32:00,41.0,40.0,30.08,West,265,2.0,5.0,98,0.03,,,0.44,0.000000,,2013-02-11 03:32:00,
2013-02-10 22:42:00,41.0,40.0,30.08,West,265,2.0,5.0,98,0.03,,,0.44,0.000000,,2013-02-11 03:42:00,
2013-02-10 22:52:00,41.0,40.0,30.08,West,265,2.0,5.0,98,0.03,,,0.44,0.000000,,2013-02-11 03:52:00,
2013-02-10 23:02:00,41.0,40.0,30.08,West,265,2.0,5.0,98,0.03,,,0.44,0.000000,,2013-02-11 04:02:00,
2013-02-10 23:10:00,43.0,43.0,30.03,SSW,194,5.0,11.0,99,0.06,,,0.50,0.000000,,2013-02-11 04:10:00,
2013-02-10 23:32:00,43.0,43.0,30.03,SSW,194,5.0,11.0,99,0.06,,,0.50,0.000000,,2013-02-11 04:32:00,
2013-02-10 23:42:00,43.0,43.0,30.03,SSW,194,5.0,11.0,99,0.06,,,0.50,0.000000,,2013-02-11 04:42:00,
2013-02-10 23:52:00,43.0,43.0,30.03,SSW,194,5.0,11.0,99,0.06,,,0.50,0.000000,,2013-02-11 04:52:00,